STARLINK-3829, 52348

Orbit data source: Space-Track

STARLINK-3829, 52348 is a payload satellite owned by SpaceX/Seattle (US) in LEO that was launched on Fri, 29 Apr 2022 UTC via an FALCON 9 launch vehicle from the Air Force Eastern Test Range (AFETR). Payload-class satellites include a variety of spacecraft equipped with specific instruments for various scientific and technological missions. These include communications satellites like Starlink; space stations such as the ISS; scientific satellites like the Hubble; Earth observation satellites from companies like Planet Labs, Umbra, and HawkEye 360; GPS; miniature CubeSats for education and research; and military/defense satellites.

Loading next visibility...
Identifier
52348, 2022-045T
Orbit
LEO
Country
Flag of USUS
Related business
Manufacturer
SpaceX/Seattle
Mission
Operational Commercial Communications
Bus & Motor
STARLINK, Unknown motor
Mass
297 kg wet, ~275 kg dry
Launch date (UTC)
2022-04-29 (4 years ago)
Launch vehicle
FALCON 9
Launch site
Air Force Eastern Test Range (AFETR)
Object type
Payload
Rocket body
Debris
Shape & HBR
Box + 1 Pan, 10.1 m
Radar Cross Section
11.087 m², Large (>1 m²)

Expand to show TLE details & history
Last TLE update: 2 days ago

TLE from 2 days ago
0 STARLINK-3829
1 52348U 22045T   26171.17333909  .00000093  00000-0  23949-4 0  9990
2 52348  53.1592  98.9393 0001214  63.9328 296.1788 15.08846577231254
Epoch: 2026-06-20T04:09Z
TLE epoch observation values (Epoch: 2026-06-20T04:09:36.497Z)
Latitude
-0.00004°
Longitude
128.14544°
Altitude
540.244 km
Speed
7.594 km/s
True Right ascension
06h 35m 45s
True Declination
0° 00' 00"
Sunlit
Object was in daylight at epoch
Visualization orbit readout
Latitude
Unknown
Longitude
Unknown
Altitude
Unknown
Speed
Unknown
Apparent Right ascension
Unknown
Apparent Declination
Unknown
Sunlit
N/A
Visualization observer readout
Local Sidereal Time
21:43:17
Azimuth
Unknown
Elevation
Unknown
Doppler factor
Unknown
Orbital elements
Apogee altitude
540.817 km
Perigee altitude
539.138 km
Semi-major axis
6,918.115 km
Eccentricity
0.00012
Inclination
53.1592°
RAAN
98.9393°
Arg. of periapsis
63.9328°
True anomaly
296.16631°
Mean anomaly
296.1788°
Eccentric anomaly
296.17256°
Mean motion
3.77191 °/min
Orbital period
95.44 mins
BSTAR
0.000023949
Loading maneuver chart data...
Computing Atmospheric mass density...
Loading historical data...
Loading historical data...
Loading historical data...
Loading historical data...
Loading historical data...
Loading historical data...
Loading historical data...

Documentation

Showing up to 5 results
|